Content
SEND FEEDBACK

Daily
Averages
Monthly
Summary
United States of America

BELLEVILLE, MICHIGAN


Home > North America > United States > Michigan
Elevation: 780 feet     Latitude: 42 14N     Longitude: 083 32W

WEATHER
 
SELECT A DAY
Number of Records: 207,410;   Date Range: 1/1/95 - 12/17/14
 
SHARE

PRINT THIS DATA

[ ← Previous Day ]
WEATHER ALMANAC - JANUARY 29, 2013
[ Next Day → ]
[ °C ]   °F
Weather ElementAverageHighLow
Temperature49.9 °F60.1 °F (8:53 pm)37.4 °F (1:16 am)
Dewpoint46 °F54 °F (4:53 pm)33.8 °F (1:16 am)
Humidity86.6 %94 % (12:16 pm)77 % (10:21 pm)
Barometer29.78 in30.00 in (1:53 am)29.48 in (11:53 pm)
Wind Speed10.5 mph19.6 mph (9:53 pm)
Wind Gust24.2 mph (6:37 pm)
Weather ElementAverage
Visibility2.6 mi
Wind DirectionSSE (166.6 °)

Weather ElementTotal
Precipitation0.95 in
Heating Degree Days16.3 (Base 65)
Averaged from 53 records on January 29, 2013
WEATHER CONDITIONS BREAKOUT
WIND DIRECTION BREAKOUT
WEATHER BY HOUR - JANUARY 29, 2013
[ °C ]   °F
Local TimeTemperatureDewpointHumidityBarometerVisibilityWind DirectionWind SpeedGust SpeedPrecipitationEventsConditions
1:16 AM37.4 °F33.8 °F87 %29.99 in2.5 miSE (130°)3.5 mphOvercast
1:53 AM37.9 °F34.0 °F86 %30.00 in2.0 miSSE (160°)3.5 mphOvercast
2:02 AM37.4 °F33.8 °F87 %29.98 in1.5 miESE (120°)3.5 mphOvercast
2:36 AM37.4 °F33.8 °F87 %29.98 in1.0 miSE (130°)4.6 mphOvercast
2:53 AM37.9 °F35.1 °F89 %29.99 in1.0 miSE (130°)3.5 mphOvercast
3:03 AM37.4 °F35.6 °F93 %29.98 in0.5 miSE (130°)3.5 mphFogFog
3:18 AM37.4 °F35.6 °F93 %29.97 in0.2 miESE (120°)4.6 mphFogFog
3:53 AM37.9 °F35.1 °F89 %29.97 in0.2 miSE (130°)4.6 mphFogFog
4:26 AM37.4 °F35.6 °F93 %29.93 in0.5 miESE (120°)6.9 mph0.01 inFogFog
4:53 AM39.0 °F35.1 °F86 %29.93 in0.5 miSE (140°)6.9 mph0.01 inFogFog
5:11 AM39.2 °F35.6 °F87 %29.94 in1.0 miSE (140°)5.8 mph0.04 inRainRain
5:29 AM37.4 °F35.6 °F93 %29.89 in3.0 miSE (140°)13.8 mph0.08 inRainLight Rain
6:34 AM39.2 °F35.6 °F87 %29.86 in1.8 miESE (120°)5.8 mph0.00 inOvercast
6:53 AM39.0 °F36.0 °F89 %29.86 in1.2 miEast (100°)5.8 mph0.00 inOvercast
7:23 AM39.2 °F37.4 °F93 %29.84 in0.8 miEast (100°)3.5 mphMist
7:53 AM39.9 °F37.0 °F89 %29.84 in0.5 miESE (120°)4.6 mph0.02 inFog-RainLight Rain
8:16 AM41.0 °F37.4 °F87 %29.83 in0.2 miCalm0.00 inFogFog
8:43 AM42.8 °F39.2 °F87 %29.83 in0.5 miSSE (160°)3.5 mph0.11 inFog-RainLight Rain
8:53 AM42.1 °F39.0 °F89 %29.83 in0.5 miSSE (160°)3.5 mph0.11 inFogFog
9:03 AM44.6 °F41.0 °F87 %29.83 in0.2 miSouth (190°)3.5 mphFogFog
9:53 AM46.0 °F43.0 °F89 %29.82 in0.2 miCalmFogFog
10:37 AM50.0 °F46.4 °F87 %29.80 in0.5 miSSW (200°)9.2 mph0.02 inRainLight Rain
10:44 AM51.8 °F48.2 °F88 %29.80 in1.0 miSSW (200°)12.7 mph0.02 inOvercast
10:53 AM53.1 °F48.9 °F86 %29.80 in1.0 miSSW (200°)13.8 mph0.02 inOvercast
11:40 AM53.6 °F50.0 °F88 %29.80 in0.8 miSW (220°)13.8 mph0.02 inOvercast
11:53 AM54.0 °F50.0 °F86 %29.81 in0.8 miSW (220°)13.8 mph0.03 inRainLight Rain
12:16 PM53.6 °F51.8 °F94 %29.77 in1.2 miSSW (200°)11.5 mph0.02 inRainLight Rain
12:34 PM55.4 °F51.8 °F88 %29.75 in3.0 miSSW (200°)12.7 mph0.04 inRainLight Rain
12:53 PM55.9 °F52.0 °F87 %29.76 in2.5 miSSW (210°)18.4 mph0.04 inOvercast
1:11 PM55.4 °F51.8 °F88 %29.75 in1.8 miSW (220°)16.1 mphOvercast
1:53 PM57.0 °F53.1 °F87 %29.75 in1.2 miSSW (210°)15.0 mph21.9 mph0.00 inOvercast
2:20 PM57.2 °F53.6 °F88 %29.73 in2.0 miSSW (210°)15.0 mphHaze
2:37 PM57.2 °F53.6 °F88 %29.72 in2.5 miSSW (210°)13.8 mphOvercast
2:53 PM57.9 °F53.1 °F84 %29.72 in2.5 miSSW (200°)16.1 mphHaze
3:08 PM57.2 °F53.6 °F88 %29.72 in3.0 miSSW (210°)17.3 mphHaze
3:37 PM57.2 °F53.6 °F88 %29.71 in3.0 miSSW (200°)11.5 mph0.00 inRainLight Rain
3:53 PM57.9 °F53.1 °F84 %29.72 in4.0 miSSW (200°)13.8 mph0.01 inRainLight Rain
4:24 PM57.2 °F53.6 °F88 %29.72 in2.0 miSSW (210°)15.0 mph20.7 mph0.03 inRainLight Rain
4:51 PM57.2 °F53.6 °F88 %29.71 in1.5 miSSW (200°)12.7 mph0.08 inRainHeavy Rain
4:53 PM57.9 °F54.0 °F87 %29.71 in1.2 miSSW (200°)13.8 mph0.08 inRainRain
5:05 PM57.2 °F53.6 °F88 %29.72 in2.0 miSSW (200°)10.4 mph0.01 inRainRain
5:32 PM57.2 °F53.6 °F88 %29.71 in3.0 miSouth (190°)12.7 mph0.02 inRainLight Rain
5:53 PM59.0 °F53.1 °F81 %29.70 in5.0 miSSW (200°)16.1 mph0.03 inHaze
6:37 PM59.0 °F53.6 °F82 %29.69 in5.0 miSSW (200°)16.1 mph24.2 mph0.00 inRainLight Rain
6:53 PM59.0 °F53.1 °F81 %29.68 in7.0 miSSW (200°)18.4 mph0.01 inRainLight Rain
7:53 PM59.0 °F53.1 °F81 %29.67 in7.0 miSouth (190°)13.8 mph0.09 inRainLight Rain
8:01 PM59.0 °F53.6 °F82 %29.67 in7.0 miSouth (190°)16.1 mph0.00 inOvercast
8:53 PM60.1 °F53.1 °F78 %29.62 in8.0 miSouth (180°)17.3 mph0.00 inOvercast
9:53 PM60.1 °F53.1 °F78 %29.57 in9.0 miSouth (180°)19.6 mphOvercast
10:06 PM59.0 °F53.6 °F82 %29.57 in9.0 miSSE (160°)15.0 mphOvercast
10:21 PM59.0 °F51.8 °F77 %29.56 in7.0 miSSE (160°)16.1 mphOvercast
10:53 PM57.0 °F51.1 °F81 %29.52 in6.0 miSSE (160°)12.7 mphHaze
11:53 PM57.0 °F51.1 °F81 %29.48 in7.0 miSSE (160°)13.8 mphMostly Cloudy
Hourly data recorded from KYIP, located miles away from Belleville, Michigan







STORIES FROM OUR PARTNERS